Portada
METAR-TAF:

METAR-TAF

Aeroports :

Terol, Espanya

latitud: 40-24-43N, longitud: 01-13-03W, altitud: 1030 m

Observació

L'informe es va fer fa 33 minuts, a les 06:00 UTC
Vent 7 kt del Est/Sud-Est, variant entre Est i Sud/Sud-Est
Temperatura 13°C
Humitat 94%
Pressió 1016 hPa
Visibilitat 10 km o més
sense núvols per sota de 1500 mi sense presència de cumulonimbus.

METAR: LETL 140600Z AUTO 12007KT 080V160 CAVOK 13/12 Q1016

Hora: 08:33 (06:33 UTC)


TAF: manca

Observacions i pronòstics meteorològics de més de 4000 aeroports (METAR i TAF).

Les estacions disponibles són els punts grocs i vermells al mapa.

Posi el ratolí al punt desitjat per veure el nom de l'estació.

Feu clic per veure les observacions i els pronòstics meteorològics.

Per canviar el mapa: feu clic els botons verds amb una creu de color negre per apropar; al botó verd amb un guió per allunyar la imatge; o en les fletxes verdes per a mapes adjacents.


METAR-TAF: